Location: Caltech
(34.1382°N, 118.1253°W)
Time: 11:18:39
(UTC-07:00)

ALOS - Visible Passes

Search period start: 28 July 2016 00:00
Search period end: 07 August 2016 00:00
Orbit: 685 x 686 km, 97.9° (Epoch: 27 July)

Date Brightness Start Highest point End Pass type
(mag) Time Alt. Az. Time Alt. Az. Time Alt. Az.
28 Jul 3.6 21:00:38 10° SSW 21:05:00 40° W 21:09:24 10° NNW visible
29 Jul 4.9 21:40:09 10° SW 21:42:52 15° W 21:45:37 10° WNW visible
30 Jul 2.5 20:38:13 10° S 20:42:51 72° WSW 20:47:33 10° NNW visible
31 Jul 4.3 21:16:43 10° SSW 21:20:37 27° W 21:24:34 10° NW visible
01 Aug 2.3 20:16:11 10° SSE 20:20:47 64° ENE 20:25:25 10° N visible
02 Aug 3.3 20:53:58 10° S 20:58:27 47° W 21:02:57 10° NNW visible
03 Aug 4.8 21:33:08 10° SW 21:36:17 18° W 21:39:27 10° NW visible
04 Aug 2.3 20:31:39 10° S 20:36:19 84° WSW 20:41:01 10° NNW visible
05 Aug 4.0 21:09:56 10° SSW 21:14:03 31° W 21:18:11 10° NW visible
06 Aug 2.5 20:09:42 10° SSE 20:14:15 55° ENE 20:18:49 10° N visible
06 Aug 5.1 21:50:22 10° WSW 21:51:58 12° W 21:53:35 10° WNW visible
